Regional Weather Roundup
Issued by NWS

Home | Current Version | Previous Version | Graphics & Text | Print | Product List | Glossary On
Versions: 1 2 3 4 5 6 7 8 9 10 11 12 13 14 15 16 17 18 19 20 21 22 23 24 25 26 27 28 29 30 31 32 33 34 35 36 37 38 39 40 41 42 43 44 45 46 47 48 49 50
000
ASUS43 KOAX 230310
RWRNE

WEATHER ROUNDUP FOR NEBRASKA
NATIONAL WEATHER SERVICE OMAHA NE
1000 PM CDT MON MAY 22 2017

NOTES: SATELLITE DATA IS BEING USED TO AUGMENT CLOUD COVER ABOVE
       12000 FEET.
       "FAIR" INDICATES FEW OR NO CLOUDS BELOW 12,000 FEET WITH NO
       SIGNIFICANT WEATHER AND/OR OBSTRUCTIONS TO VISIBILITY.

  * THESE STATIONS DO NOT REPORT WEATHER SUCH AS RAIN...SNOW OR FOG.

NEZ001>004-019>022-054>056-230400-
NEBRASKA PANHANDLE

CITY           SKY/WX    TMP DP  RH WIND       PRES   REMARKS
SCOTTSBLUFF    CLEAR     43  37  79 NW6       30.17R
ALLIANCE       CLEAR     40  38  93 NW7       30.13R
CHADRON        MOCLDY    44  40  85 W3        30.14R
GORDON         FAIR      44  39  85 NW7       30.11R
KIMBALL        CLOUDY    43  37  79 NW6       30.19R
SIDNEY         CLOUDY    42  39  89 N8        30.16R
$$

NEZ057>060-069>072-079>082-230400-
SOUTHWEST NEBRASKA

CITY           SKY/WX    TMP DP  RH WIND       PRES   REMARKS
NORTH PLATTE   RAIN      50  47  89 N12G21    30.08R
IMPERIAL       MOCLDY    50  42  74 N15       30.10R
LEXINGTON      LGT RAIN  52  47  83 N17G24    30.04R
MCCOOK         CLOUDY    56  43  61 N21       30.05R
OGALLALA       CLOUDY    50  41  71 N12       30.10R
$$

NEZ005>010-023>029-035>040-094-230400-
NORTH CENTRAL NEBRASKA

CITY           SKY/WX    TMP DP  RH WIND       PRES   REMARKS
VALENTINE      PTCLDY    50  42  74 NW8       30.05R
AINSWORTH      CLOUDY    49  43  78 NW6       30.03S
BROKEN BOW     CLOUDY    54  42  64 N17       30.02R
O`NEILL        PTCLDY    48  42  78 N3        30.00R
ORD            MOCLDY    54  44  69 N13       29.99R
THEDFORD       CLOUDY    49  45  85 NW7       30.07R
$$

NEZ041-046>049-061>064-073>077-083>087-230400-
SOUTH CENTRAL NEBRASKA

CITY           SKY/WX    TMP DP  RH WIND       PRES   REMARKS
GRAND ISLAND   CLOUDY    57  46  66 N8        29.97R
AURORA         PTCLDY    56  46  66 N8        29.95R
HASTINGS       CLOUDY    57  46  66 N8        29.96R
HEBRON         CLOUDY    55  54  95 CALM      29.93R
HOLDREGE       RAIN      56  45  64 NW15G21   30.01R
KEARNEY *      CLOUDY    59  43  55 W9        29.99R
YORK           PTCLDY    57  45  62 N7        29.94R
$$

NEZ011>018-030>034-042>045-230400-
NORTHEAST NEBRASKA

CITY           SKY/WX    TMP DP  RH WIND       PRES   REMARKS
NORFOLK        CLEAR     53  45  74 N12       29.96R
ALBION         MOCLDY    55  47  72 N12       29.98R
BLAIR          CLOUDY    60  46  60 CALM      29.89R
FREMONT        CLOUDY    60  45  57 NW13G20   29.92R
TEKAMAH        CLEAR     58  48  69 NW12      29.90R
WAYNE          PTCLDY    53  48  83 N12       29.94R
$$

NEZ050>053-065>068-078-088>093-230400-
SOUTHEAST NEBRASKA

CITY           SKY/WX    TMP DP  RH WIND       PRES   REMARKS
LINCOLN        CLOUDY    56  54  93 W3        29.92R
OMAHA EPPLEY   CLOUDY    60  52  74 SE3       29.88S
BEATRICE       CLOUDY    57  56  97 SW5       29.91S
FALLS CITY     PTCLDY    59  54  83 SW10      29.88F
NEBRASKA CITY  MOCLDY    57  51  79 W8        29.89S
PLATTSMOUTH    CLOUDY    57  52  82 W3        29.89S
$$

NEZ044-045-051>053-067-230400-
OMAHA AREA

CITY           SKY/WX    TMP DP  RH WIND       PRES   REMARKS
OMAHA EPPLEY   CLOUDY    60  52  74 SE3       29.88S
BLAIR          CLOUDY    60  46  60 CALM      29.89R
FREMONT        CLOUDY    60  45  57 NW13G20   29.92R
MILLARD          N/A     57  56  95 CALM      29.89S FOG
OFFUTT AFB     CLOUDY    58  54  87 W3        29.88S
PLATTSMOUTH    CLOUDY    57  52  82 W3        29.89S
WAHOO          FAIR      59  45  60 NW5       29.91R
$$




USA.gov is the U.S. government's official web portal to all federal, state and local government web resources and services.